This demonstration page uses our WeatherBlox Daily Observations layout. Learn more.

38.80484, -77.04692

Hourly Observations for August 25, 2019

Temp ( °F °C ) Dew Point ( °F °C ) Humidity (%) Winds ( mph kmh ) Pressure ( in mb ) Visibility ( mi km ) Precip ( " mm )
12:52 am 00:52 Mostly Cloudy 69 20.6 56 13.3 63 63 NE 7 11 30.21 1023 10 16.09344 0 0
1:52 am 01:52 Partly Cloudy 68 20 56 13.3 65 65 NNE 7 11 30.18 1022 10 16.09344 0 0
2:52 am 02:52 Mostly Cloudy 67 19.4 58 14.4 73 73 ENE 7 11 30.18 1022 10 16.09344 0 0
3:52 am 03:52 Mostly Cloudy 66 18.9 58 14.4 75 75 NE 6 9 30.18 1022 10 16.09344 0 0
4:52 am 04:52 Mostly Cloudy 66 18.9 59 15 78 78 NE 5 7 30.18 1022 10 16.09344 0 0
5:52 am 05:52 Mostly Cloudy 66 18.9 58 14.4 75 75 NE 9 15 30.18 1022 10 16.09344 0 0
6:52 am 06:52 Mostly Cloudy 66 18.9 58 14.4 75 75 NE 7 11 30.18 1022 10 16.09344 0 0
7:52 am 07:52 Partly Cloudy 68 20 58 14.4 70 70 NE 10 17 30.21 1023 10 16.09344 0 0
8:52 am 08:52 Partly Cloudy 70 21.1 57 13.9 64 64 NE 16 26 30.21 1023 10 16.09344 0 0
9:52 am 09:52 Mostly Sunny 73 22.8 57 13.9 57 57 NE 15 24 30.21 1023 10 16.09344 0 0
10:52 am 10:52 Mostly Cloudy 75 23.9 57 13.9 54 54 NE 20 31 30.21 1023 10 16.09344 0 0
11:52 am 11:52 Mostly Cloudy 76 24.4 57 13.9 52 52 ENE 12 19 30.21 1023 10 16.09344 0 0
12:52 pm 12:52 Mostly Cloudy 76 24.4 58 14.4 54 54 NE 15 24 30.18 1022 10 16.09344 0 0
1:52 pm 13:52 Mostly Cloudy 79 26.1 57 13.9 47 47 E 13 20 30.18 1022 10 16.09344 0 0
2:52 pm 14:52 Mostly Cloudy 77 25 57 13.9 50 50 ENE 10 17 30.18 1022 10 16.09344 0 0
3:52 pm 15:52 Partly Cloudy 78 25.6 57 13.9 48 48 ENE 9 15 30.15 1021 10 16.09344 0 0
4:52 pm 16:52 Mostly Cloudy 77 25 57 13.9 50 50 ENE 9 15 30.15 1021 10 16.09344 0 0
5:52 pm 17:52 Mostly Cloudy 78 25.6 57 13.9 48 48 ENE 13 20 30.15 1021 10 16.09344 0 0
7:52 pm 19:52 Mostly Cloudy 74 23.3 59 15 60 60 E 12 19 30.15 1021 10 16.09344 0.001 0.001
8:52 pm 20:52 Mostly Cloudy 72 22.2 58 14.4 61 61 E 7 11 30.15 1021 10 16.09344 0 0
9:52 pm 21:52 Mostly Cloudy 71 21.7 58 14.4 63 63 E 7 11 30.18 1022 10 16.09344 0 0
10:52 pm 22:52 Mostly Cloudy 70 21.1 58 14.4 66 66 E 9 15 30.18 1022 10 16.09344 0 0
11:52 pm 23:52 Mostly Cloudy 69 20.6 58 14.4 68 68 ENE 9 15 30.18 1022 10 16.09344 0 0

Powered by AerisWeather